Regional Weather Roundup
Issued by NWS Sterling, VA

Home | Current Version | Previous Version | Graphics & Text | Print | Product List | Glossary On
Versions: 1 2 3 4 5 6 7 8 9 10 11 12 13 14 15 16 17 18 19 20 21 22 23 24 25 26 27 28 29 30 31 32 33 34 35 36 37 38 39 40 41 42 43 44 45 46 47 48 49 50
000
ASUS41 KLWX 011710
RWRLWX

REGIONAL WEATHER ROUNDUP
NATIONAL WEATHER SERVICE BALTIMORE MD/WASHINGTON DC
100 PM EDT MON SEP 01 2014

Note: "FAIR" indicates few or no clouds below 12,000 feet
with no significant weather and/or obstructions to visibility.
 TC=TEMPERATURE CELSIUS

 * =Non NWS site. Station does not report precipitation (e.g. rain,
    snow, etc.), thunder, or fog.

DCZ001-MDZ009-015-VAZ040>042-051-053>054-011800-
WASHINGTON METRO

CITY           SKY/WX    TMP DP  RH WIND       PRES   REMARKS
WASHINGTON NAT PTSUNNY   88  74  63 S10       29.99F HX  96
DULLES         PTSUNNY   85  71  63 CALM      30.00F HX  90
ANDREWS AFB    SUNNY     87  74  64 SW7       30.00F HX  96
QUANTICO       SUNNY     84  77  79 S9        30.00F HX  94
COLLEGE PARK*  PTSUNNY   88  72  58 CALM      29.99F HX  94
LEESBURG*      PTSUNNY   88  73  62 W5        30.01S HX  96
MANASSAS*      MOSUNNY   88  72  58 W6        30.00F HX  94
GAITHERSBURG*  MOSUNNY   88  73  62 SW3       30.03F HX  96

$$

MDZ006>007-011-014-011800-
BALTIMORE METRO

CITY           SKY/WX    TMP DP  RH WIND       PRES   REMARKS
BWI AIRPORT    MOSUNNY   87  71  58 CALM      29.98F HX  93
MD SCIENCE CTR   N/A     87  71  58 MISG      29.98F HX  93
MARTIN STATE   MOSUNNY   84  79  84 SE8       30.00F HX  96
ANNAPOLIS      MOSUNNY   81  74  79 SE15      29.98F
FORT MEADE*    MOSUNNY   86  72  62 SW8       30.01F HX  92

$$

MDZ012-015-019>023-011800-
MARYLAND EASTERN SHORE

CITY           SKY/WX    TMP DP  RH WIND       PRES   REMARKS
OCEAN CITY     MOSUNNY   86  77  74 S9        30.01F HX  97
SALISBURY      MOSUNNY   90  74  59 W6        30.00F HX  99
BAY BRIDGE AP*   N/A     82  72  69 SE8       29.99F
CAMBRIDGE*     SUNNY     86  72  62 SW7       30.00F HX  92
EASTON*        MOSUNNY   88  75  66 SW9       30.03F HX  97

$$

MDZ017>025-011800-
SOUTHERN MARYLAND

CITY           SKY/WX    TMP DP  RH WIND       PRES   REMARKS
PATUXENT RIVER MOSUNNY   88  71  57 W9        30.00F HX  94
ST INIGOES     MOSUNNY   88  74  63 VRB5      30.00F HX  96
LEONARDTOWN*   MOSUNNY   86  70  58 SW9       30.02F HX  90

$$

MDZ003>005-011800-
NORTH CENTRAL MARYLAND

CITY           SKY/WX    TMP DP  RH WIND       PRES   REMARKS
FREDERICK*     PTSUNNY   90  73  58 SW6       30.02F HX  98
HAGERSTOWN APT PTSUNNY   84  69  60 SW8       30.01F
WESTMINSTER*   MOSUNNY   84  72  65 SW7       30.02F

$$

MDZ501>502-011800-
WESTERN MARYLAND

CITY           SKY/WX    TMP DP  RH WIND       PRES   REMARKS
OAKLAND*       CLOUDY    68 N/A N/A W9G16     30.14S FOG
CUMBERLAND*    PTSUNNY   82  72  69 SW12      30.07S

$$

VAZ025>031-011800-
SHENANDOAH VALLEY

CITY           SKY/WX    TMP DP  RH WIND       PRES   REMARKS
WINCHESTER*    LGT RAIN  84  70  61 W8        30.02S
STAUNTON*      CLOUDY    86  64  48 W7        30.08S

$$

WVZ021-048>050-054>055-011800-
EASTERN WEST VIRGINIA PANHANDLE

CITY           SKY/WX    TMP DP  RH WIND       PRES   REMARKS
MARTINSBURG    PTSUNNY   90  67  46 VRB3      30.01F HX  93
PETERSBURG*    NOT AVBL

$$

VAZ036>039-050-011800-
CENTRAL FOOTHILLS

CITY           SKY/WX    TMP DP  RH WIND       PRES   REMARKS
CHARLOTTESVILL MOSUNNY   88  69  53 CALM      30.02F HX  92
ORANGE*        MOSUNNY   88  70  55 S9        30.03F HX  92

$$

VAZ055>057-011800-
NORTH AND CENTRAL PIEDMONT

CITY           SKY/WX    TMP DP  RH WIND       PRES   REMARKS
FREDERICKSBRG* SUNNY     89  73  59 SW8       29.99F HX  98
STAFFORD*      SUNNY     86  73  65 W6        30.04F HX  94

$$

NCZ024-NYZ072-PAZ021-071-VAZ022-071-011800-
OTHER REGIONAL OBSERVATIONS

CITY           SKY/WX    TMP DP  RH WIND       PRES   REMARKS
NEW YORK CITY  CLOUDY    86  69  56 VRB3      30.01S HX  90
PHILADELPHIA   MOSUNNY   85  72  65 SW8       29.99F HX  91
PITTSBURGH     PTSUNNY   79  68  69 W14       30.01F
ROANOKE        PTSUNNY   88  66  48 W8        30.11F HX  90
RICHMOND       PTSUNNY   93  68  43 SW14      30.02F HX  97
RALEIGH        PTSUNNY   90  72  55 SW8       30.09F HX  97

$$

ANZ530>537-011800-
MARINE OBSERVATIONS

STATION/POSITION TIME  TEMP    WIND        PRES
                       AIR SEA DIR/SP/G
                 (UTC) (F)     (DEG/KT/KT) (MB)
THOMAS PT LIGHT  1700   79 79  160/  9/ 10 1016.5F
BALT KEY BRIDGE  1700          120/  9/ 11 1015.2F
COVE POINT       1700   78     180/ 12/ 13 1015.8F
LEWISETTA        1700   87 82  260/  9/ 11 1015.6F
SOLOMONS ISLAND  1700      80                N/A
PINEY POINT      1700          360/  2/  3   N/A

$$




USA.gov is the U.S. government's official web portal to all federal, state and local government web resources and services.